| time (UTC) | temp C | wind direction | speed KPH | gust KPH | rain 1hr cm | rain 24hr cm | rain mn cm | humidity % | barometer mb |
| 20260509013044 | 28 | 230 | 3.2 | 9.7 | 0.00 | 0.00 | 0.00 | 49 | 1012.9 |
| 20260509011550 | 28 | 230 | 1.6 | 9.7 | 0.00 | 0.00 | 0.00 | 48 | 1012.9 |
| 20260509010042 | 28 | 230 | 3.2 | 9.7 | 0.00 | 0.00 | 0.00 | 48 | 1013.0 |
| 20260509004543 | 28 | 0 | 0.0 | 8.0 | 0.00 | 0.00 | 0.00 | 46 | 1013.0 |
| 20260509003035 | 29 | 230 | 3.2 | 8.0 | 0.00 | 0.00 | 0.00 | 46 | 1013.2 |
| 20260509001538 | 28 | 230 | 0.0 | 9.7 | 0.00 | 0.00 | 0.00 | 46 | 1013.3 |
| 20260509000038 | 28 | 0 | 0.0 | 6.4 | 0.00 | 0.00 | 0.00 | 49 | 1013.4 |
| 20260508234537 | 28 | 0 | 0.0 | 11.3 | 0.00 | 0.00 | 0.00 | 49 | 1013.5 |
| 20260508233039 | 28 | 229 | 0.0 | 6.4 | 0.00 | 0.00 | 0.00 | 50 | 1013.6 |
| 20260508231538 | 28 | 0 | 1.6 | 11.3 | 0.00 | 0.00 | 0.00 | 50 | 1013.8 |
| 20260508230036 | 28 | 229 | 1.6 | 9.7 | 0.00 | 0.00 | 0.00 | 51 | 1013.9 |
| 20260508224540 | 28 | 229 | 0.0 | 11.3 | 0.00 | 0.00 | 0.00 | 50 | 1014.0 |
| 20260508223043 | 28 | 227 | 1.6 | 11.3 | 0.00 | 0.00 | 0.00 | 53 | 1014.3 |
| 20260508221540 | 28 | 227 | 0.0 | 6.4 | 0.00 | 0.00 | 0.00 | 51 | 1014.6 |
| 20260508220036 | 28 | 227 | 1.6 | 8.0 | 0.00 | 0.00 | 0.00 | 53 | 1014.9 |
| 20260508214548 | 27 | 0 | 1.6 | 8.0 | 0.00 | 0.00 | 0.00 | 51 | 1015.0 |
| 20260508213038 | 27 | 227 | 1.6 | 8.0 | 0.00 | 0.00 | 0.00 | 52 | 1015.3 |
| 20260508211536 | 27 | 227 | 0.0 | 11.3 | 0.00 | 0.00 | 0.00 | 50 | 1015.5 |
| 20260508210035 | 27 | 223 | 1.6 | 6.4 | 0.00 | 0.00 | 0.00 | 51 | 1015.5 |
| 20260508204543 | 26 | 223 | 0.0 | 6.4 | 0.00 | 0.00 | 0.00 | 53 | 1015.8 |
| 20260508203037 | 26 | 0 | 1.6 | 6.4 | 0.00 | 0.00 | 0.00 | 51 | 1015.9 |
| 20260508201537 | 26 | 0 | 0.0 | 6.4 | 0.00 | 0.00 | 0.00 | 52 | 1016.0 |
| 20260508200035 | 25 | 220 | 1.6 | 8.0 | 0.00 | 0.00 | 0.00 | 58 | 1016.1 |
| 20260508194538 | 25 | 214 | 1.6 | 6.4 | 0.00 | 0.00 | 0.00 | 56 | 1016.3 |
| 20260508193042 | 25 | 213 | 1.6 | 6.4 | 0.00 | 0.00 | 0.00 | 58 | 1016.3 |
| 20260508191537 | 24 | 212 | 0.0 | 4.8 | 0.00 | 0.00 | 0.00 | 61 | 1016.4 |
| 20260508190036 | 24 | 212 | 0.0 | 6.4 | 0.00 | 0.00 | 0.00 | 61 | 1016.5 |
| 20260508184534 | 23 | 211 | 1.6 | 8.0 | 0.00 | 0.00 | 0.00 | 63 | 1016.6 |
| 20260508183032 | 23 | 209 | 0.0 | 4.8 | 0.00 | 0.00 | 0.00 | 65 | 1016.6 |
| 20260508181542 | 22 | 0 | 0.0 | 6.4 | 0.00 | 0.00 | 0.00 | 66 | 1016.7 |
| 20260508180040 | 22 | 206 | 1.6 | 4.8 | 0.00 | 0.00 | 0.00 | 68 | 1016.8 |
| 20260508174538 | 21 | 207 | 0.0 | 4.8 | 0.00 | 0.00 | 0.00 | 70 | 1016.7 |
| 20260508173038 | 20 | 0 | 0.0 | 4.8 | 0.00 | 0.00 | 0.00 | 71 | 1016.8 |
| 20260508171543 | 20 | 0 | 0.0 | 6.4 | 0.00 | 0.00 | 0.00 | 71 | 1016.9 |
| 20260508170041 | 20 | 208 | 0.0 | 3.2 | 0.00 | 0.00 | 0.00 | 70 | 1016.9 |
| 20260508164537 | 20 | 0 | 0.0 | 8.0 | 0.00 | 0.00 | 0.00 | 73 | 1016.8 |
| 20260508163045 | 18 | 207 | 0.0 | 4.8 | 0.00 | 0.00 | 0.00 | 75 | 1016.8 |
| 20260508161536 | 17 | 0 | 0.0 | 4.8 | 0.00 | 0.00 | 0.00 | 79 | 1017.0 |
| 20260508160057 | 16 | 208 | 0.0 | 4.8 | 0.00 | 0.00 | 0.00 | 82 | 1017.0 |
| 20260508154538 | 16 | 0 | 0.0 | 4.8 | 0.00 | 0.00 | 0.00 | 86 | 1017.1 |
| 20260508153045 | 14 | 0 | 0.0 | 4.8 | 0.00 | 0.00 | 0.00 | 89 | 1017.3 |
| 20260508151541 | 13 | 209 | 1.6 | 6.4 | 0.00 | 0.00 | 0.00 | 88 | 1017.2 |
| 20260508150038 | 13 | 214 | 0.0 | 4.8 | 0.00 | 0.00 | 0.00 | 91 | 1017.1 |
| 20260508144536 | 12 | 214 | 0.0 | 8.0 | 0.00 | 0.00 | 0.00 | 92 | 1016.8 |
| 20260508143043 | 12 | 0 | 0.0 | 4.8 | 0.00 | 0.00 | 0.00 | 92 | 1016.8 |
| 20260508141547 | 12 | 0 | 0.0 | 3.2 | 0.00 | 0.00 | 0.00 | 92 | 1016.5 |
| 20260508140043 | 11 | 0 | 0.0 | 6.4 | 0.00 | 0.00 | 0.00 | 92 | 1016.3 |
| 20260508134538 | 11 | 0 | 0.0 | 3.2 | 0.00 | 0.00 | 0.00 | 92 | 1016.1 |
| 20260508133047 | 11 | 0 | 0.0 | 0.0 | 0.00 | 0.00 | 0.00 | 92 | 1016.1 |
| 20260508131539 | 11 | 0 | 0.0 | 0.0 | 0.00 | 0.00 | 0.00 | 92 | 1016.1 |
| 20260508130036 | 11 | 0 | 0.0 | 0.0 | 0.00 | 0.00 | 0.00 | 91 | 1016.0 |
| 20260508124541 | 11 | 0 | 0.0 | 0.0 | 0.00 | 0.00 | 0.00 | 92 | 1015.7 |
| 20260508123038 | 11 | 0 | 0.0 | 0.0 | 0.00 | 0.00 | 0.00 | 91 | 1015.7 |
| 20260508121555 | 11 | 0 | 0.0 | 0.0 | 0.00 | 0.00 | 0.00 | 91 | 1015.6 |
| 20260508120038 | 11 | 0 | 0.0 | 0.0 | 0.00 | 0.00 | 0.00 | 91 | 1015.7 |
| 20260508114537 | 12 | 0 | 0.0 | 0.0 | 0.00 | 0.00 | 0.00 | 91 | 1015.6 |
| 20260508113036 | 12 | 0 | 0.0 | 0.0 | 0.00 | 0.00 | 0.00 | 91 | 1015.6 |
| 20260508111538 | 12 | 0 | 0.0 | 0.0 | 0.00 | 0.00 | 0.00 | 90 | 1015.7 |
| 20260508110048 | 12 | 0 | 0.0 | 0.0 | 0.00 | 0.00 | 0.00 | 91 | 1015.5 |
| 20260508104538 | 12 | 0 | 0.0 | 0.0 | 0.00 | 0.00 | 0.00 | 90 | 1015.5 |
| 20260508103040 | 12 | 0 | 0.0 | 0.0 | 0.00 | 0.00 | 0.00 | 90 | 1015.6 |
| 20260508101537 | 13 | 0 | 0.0 | 0.0 | 0.00 | 0.00 | 0.00 | 90 | 1015.6 |
| 20260508100034 | 13 | 0 | 0.0 | 0.0 | 0.00 | 0.00 | 0.00 | 89 | 1015.7 |
| 20260508094537 | 13 | 0 | 0.0 | 0.0 | 0.00 | 0.00 | 0.00 | 89 | 1015.7 |
| 20260508093038 | 13 | 0 | 0.0 | 0.0 | 0.00 | 0.00 | 0.00 | 88 | 1015.5 |
| 20260508091539 | 13 | 0 | 0.0 | 1.6 | 0.00 | 0.00 | 0.00 | 88 | 1015.7 |
| 20260508090038 | 14 | 0 | 0.0 | 4.8 | 0.00 | 0.00 | 0.00 | 88 | 1015.5 |
| 20260508084536 | 14 | 0 | 0.0 | 0.0 | 0.00 | 0.00 | 0.00 | 88 | 1015.4 |
| 20260508083117 | 15 | 0 | 0.0 | 0.0 | 0.00 | 0.00 | 0.00 | 88 | 1015.5 |
| 20260508081541 | 15 | 0 | 0.0 | 0.0 | 0.00 | 0.00 | 0.00 | 88 | 1015.6 |
| 20260508080041 | 15 | 0 | 0.0 | 0.0 | 0.00 | 0.00 | 0.00 | 87 | 1015.4 |
| 20260508074538 | 16 | 0 | 0.0 | 0.0 | 0.00 | 0.00 | 0.00 | 87 | 1015.2 |
| 20260508073037 | 16 | 0 | 0.0 | 0.0 | 0.00 | 0.00 | 0.00 | 86 | 1015.2 |
| 20260508071538 | 16 | 0 | 0.0 | 0.0 | 0.00 | 0.00 | 0.00 | 86 | 1015.2 |
| 20260508070035 | 17 | 0 | 0.0 | 0.0 | 0.00 | 0.00 | 0.00 | 85 | 1015.1 |
| 20260508064601 | 17 | 0 | 0.0 | 0.0 | 0.00 | 0.00 | 0.00 | 85 | 1015.1 |
| 20260508063040 | 17 | 0 | 0.0 | 0.0 | 0.00 | 0.00 | 0.00 | 85 | 1015.1 |
| 20260508061542 | 18 | 0 | 0.0 | 0.0 | 0.00 | 0.00 | 0.00 | 83 | 1015.2 |
| 20260508060037 | 18 | 0 | 0.0 | 1.6 | 0.00 | 0.00 | 0.00 | 85 | 1015.1 |
| 20260508054539 | 18 | 0 | 0.0 | 0.0 | 0.00 | 0.00 | 0.00 | 85 | 1015.1 |
| 20260508053035 | 18 | 0 | 0.0 | 0.0 | 0.00 | 0.00 | 0.00 | 84 | 1015.0 |
| 20260508051536 | 18 | 0 | 0.0 | 0.0 | 0.00 | 0.00 | 0.00 | 83 | 1014.9 |
| 20260508050044 | 19 | 0 | 0.0 | 0.0 | 0.00 | 0.00 | 0.00 | 81 | 1015.0 |
| 20260508044537 | 20 | 0 | 0.0 | 0.0 | 0.00 | 0.00 | 0.00 | 78 | 1014.8 |
| 20260508043037 | 21 | 0 | 0.0 | 0.0 | 0.00 | 0.00 | 0.00 | 77 | 1014.8 |
| 20260508041536 | 21 | 0 | 0.0 | 0.0 | 0.00 | 0.00 | 0.00 | 76 | 1014.6 |
| 20260508040037 | 21 | 0 | 0.0 | 0.0 | 0.00 | 0.00 | 0.00 | 76 | 1014.3 |
| 20260508034538 | 22 | 0 | 0.0 | 0.0 | 0.00 | 0.00 | 0.00 | 75 | 1014.2 |
| 20260508033042 | 23 | 0 | 0.0 | 0.0 | 0.00 | 0.00 | 0.00 | 72 | 1014.1 |
| 20260508031537 | 24 | 0 | 0.0 | 0.0 | 0.00 | 0.00 | 0.00 | 70 | 1013.9 |
| 20260508030037 | 25 | 0 | 0.0 | 0.0 | 0.00 | 0.00 | 0.00 | 65 | 1013.8 |
| 20260508024541 | 26 | 0 | 0.0 | 0.0 | 0.00 | 0.00 | 0.00 | 62 | 1013.7 |
| 20260508023037 | 26 | 0 | 0.0 | 0.0 | 0.00 | 0.00 | 0.00 | 57 | 1013.6 |
| 20260508021537 | 27 | 0 | 0.0 | 0.0 | 0.00 | 0.00 | 0.00 | 55 | 1013.6 |
| 20260508020041 | 27 | 0 | 0.0 | 3.2 | 0.00 | 0.00 | 0.00 | 53 | 1013.7 |
| 20260508014538 | 27 | 0 | 0.0 | 4.8 | 0.00 | 0.00 | 0.00 | 55 | 1013.7 |